Home > Weather > Sitka > Past weeks

Flag for U.S.A. Weather for the Past 2 Weeks in Sitka, Alaska, U.S.A.

Now
43 °F

Light rain. Fog.


Feels Like: 38 °F
Forecast: 40 / 49 °F
Wind: 9 mph from East

Location: Sitka Airport

Current Time: Feb 8, 2016 at 10:47:14 AM

Latest Report: Feb 8, 2016 at 9:53 AM


Visibility: 5 mi

Pressure: 29.83 "Hg

Humidity: 86%

Dew point: 39 °F

Location of SitkaLocation

Historic Weather in Sitka — Graph

°F

Sitka Temperature Yesterday

Maximum temperature yesterday: 47 °F (at 12:00 PM)
Minimum temperature yesterday: 41 °F (at 12:53 AM)
Average temperature yesterday: 44 °F

High & Low Weather Summary for the Past Weeks

 TemperatureHumidityPressure
High51 °F (Jan 27, 2:53 AM)100% (Jan 31, 4:53 AM)30.19 "Hg (Jan 31, 4:53 AM)
Low32 °F (Feb 1, 2:53 AM)53% (Feb 3, 12:53 AM)28.93 "Hg (Jan 26, 3:53 AM)
Average42 °F80%29.65 "Hg
* Reported Jan 24 9:53 AM — Feb 8 9:53 AM, Sitka, Weather by CustomWeather, © 2016

Note: Actual official high and low records may vary slightly from our data, if they occured in-between our weather recording intervals... More about our weather records

Advertising

Sitka Weather History for the Previous 24 Hours

 ConditionsComfort  
Time TempWeatherWind HumidityBarometerVisibility
9:53 AM
Mon, Feb 8
43 °FLight rain. Fog.9 mph86%29.83 "Hg5 mi
8:53 AM45 °FLight rain. Overcast.5 mph76%29.85 "Hg4 mi
7:53 AM46 °FLight rain. Overcast.21 mph68%29.84 "Hg10 mi
6:53 AM44 °FOvercast.5 mph79%29.89 "Hg10 mi
5:53 AM45 °FOvercast.8 mph71%29.96 "Hg10 mi
4:53 AM43 °FMostly cloudy.5 mph82%30.00 "Hg10 mi
3:53 AM43 °FOvercast.5 mph86%30.01 "Hg10 mi
2:53 AM42 °FOvercast.5 mph85%30.03 "Hg10 mi
1:53 AM42 °FOvercast.No wind82%30.08 "Hg9 mi
12:53 AM42 °FPassing clouds.3 mph85%30.09 "Hg7 mi
11:53 PM
Sun, Feb 7
44 °FPassing clouds.5 mph85%30.10 "Hg9 mi
10:53 PM44 °FPassing clouds.3 mph79%30.10 "Hg10 mi
9:53 PM45 °FOvercast.9 mph71%30.11 "Hg10 mi
8:53 PM45 °FPassing clouds.9 mph71%30.09 "Hg10 mi
7:53 PM45 °FClear.8 mph74%30.09 "Hg10 mi
6:53 PM45 °FPassing clouds.10 mph74%30.07 "Hg10 mi
5:53 PM46 °FPassing clouds.12 mph68%30.07 "Hg10 mi
4:53 PM46 °FPartly cloudy.10 mph71%30.06 "Hg10 mi
3:53 PM46 °FMostly cloudy.6 mph73%30.06 "Hg10 mi
2:53 PM45 °FMore clouds than sun.6 mph82%30.05 "Hg10 mi
1:53 PM47 °FCloudy.8 mph74%30.03 "Hg10 mi
12:53 PM47 °FPartly sunny.12 mph80%30.03 "Hg8 mi
12:00 PM47 °FCloudy.17 mph86%30.00 "Hg7 mi
10:53 AM45 °FMostly cloudy.13 mph74%29.97 "Hg10 mi
Weather by CustomWeather, © 2016

See weather overviewHow to use our weather pages